Year,Month,Day,Hour,Minute,Value (Times are PST for temperature in C)
2018,12,03,00,29,5.70
2018,12,03,00,30,5.70
2018,12,03,01,29,5.30
2018,12,03,01,30,5.30
2018,12,03,01,31,5.30
2018,12,03,01,32,5.30
2018,12,03,01,33,5.30
2018,12,03,01,34,5.30
2018,12,03,01,35,5.30
2018,12,03,01,36,5.30
2018,12,03,01,37,5.30
2018,12,03,01,38,5.30
2018,12,03,01,39,5.30
2018,12,03,01,40,5.30
2018,12,03,01,41,5.30
2018,12,03,01,42,5.30
2018,12,03,01,43,5.30
2018,12,03,01,44,5.30
2018,12,03,01,45,5.30
2018,12,03,01,46,5.30
2018,12,03,01,47,5.30
2018,12,03,01,48,5.30
2018,12,03,01,49,5.30
2018,12,03,01,50,5.30
2018,12,03,01,51,5.30
2018,12,03,01,52,5.30
2018,12,03,01,53,5.30
2018,12,03,01,54,5.30
2018,12,03,01,55,5.30
2018,12,03,01,56,5.30
2018,12,03,01,57,5.30
2018,12,03,01,58,5.30
2018,12,03,01,59,5.30
2018,12,03,02,00,5.20
2018,12,03,02,02,5.30
2018,12,03,02,29,5.20
2018,12,03,02,30,5.20
2018,12,03,02,31,5.20
2018,12,03,02,32,5.20
2018,12,03,02,33,5.20
2018,12,03,02,34,5.20
2018,12,03,02,35,5.20
2018,12,03,02,36,5.20
2018,12,03,02,37,5.20
2018,12,03,02,38,5.20
2018,12,03,02,39,5.20
2018,12,03,02,40,5.20
2018,12,03,02,41,5.20
2018,12,03,02,42,5.20
2018,12,03,02,43,5.20
2018,12,03,02,44,5.20
2018,12,03,02,45,5.20
2018,12,03,02,46,5.20
2018,12,03,02,47,5.20
2018,12,03,02,48,5.20
2018,12,03,02,49,5.20
2018,12,03,02,50,5.20
2018,12,03,02,51,5.20
2018,12,03,02,52,5.20
2018,12,03,02,53,5.20
2018,12,03,02,54,5.20
2018,12,03,02,55,5.20
2018,12,03,02,57,5.20
2018,12,03,03,29,5.30
2018,12,03,03,30,5.30
2018,12,03,03,31,5.30
2018,12,03,03,32,5.30
2018,12,03,03,33,5.30
2018,12,03,03,34,5.30
2018,12,03,03,35,5.30
2018,12,03,03,36,5.30
2018,12,03,03,37,5.30
2018,12,03,03,38,5.30
2018,12,03,03,39,5.30
2018,12,03,03,40,5.30
2018,12,03,03,41,5.30
2018,12,03,03,42,5.30
2018,12,03,03,43,5.30
2018,12,03,03,44,5.30
2018,12,03,03,45,5.30
2018,12,03,03,46,5.30
2018,12,03,03,47,5.30
2018,12,03,03,48,5.30
2018,12,03,03,49,5.40
2018,12,03,03,51,5.30
2018,12,03,03,52,5.30
2018,12,03,03,53,5.30
2018,12,03,03,54,5.30
2018,12,03,04,29,5.10
2018,12,03,04,30,4.90
2018,12,03,04,31,4.90
2018,12,03,04,32,4.90
2018,12,03,04,33,4.90
2018,12,03,04,34,4.90
2018,12,03,04,35,4.90
2018,12,03,04,36,4.90
2018,12,03,04,37,4.90
2018,12,03,04,38,4.90
2018,12,03,04,39,4.80
2018,12,03,04,40,4.80
2018,12,03,04,41,4.80
2018,12,03,04,42,4.80
2018,12,03,04,43,4.80
2018,12,03,04,44,4.80
2018,12,03,04,45,4.80
2018,12,03,04,46,4.80
2018,12,03,04,47,4.80
2018,12,03,04,48,4.70
2018,12,03,04,49,4.70
2018,12,03,04,50,4.70
2018,12,03,04,51,4.70
2018,12,03,04,52,4.70
2018,12,03,04,53,4.80
2018,12,03,04,54,4.80
2018,12,03,04,55,4.80
2018,12,03,04,56,4.80
2018,12,03,04,57,4.90
2018,12,03,04,58,4.90
2018,12,03,04,59,4.90
2018,12,03,05,00,4.90
2018,12,03,05,01,4.90
2018,12,03,05,02,4.90
2018,12,03,05,03,4.90
2018,12,03,05,04,4.90
2018,12,03,05,06,4.90
2018,12,03,05,07,4.90
2018,12,03,05,08,4.90
2018,12,03,05,09,4.90
2018,12,03,05,29,4.90
2018,12,03,05,30,4.90
2018,12,03,05,31,4.80
2018,12,03,05,32,4.80
2018,12,03,05,33,4.80
2018,12,03,05,34,4.80
2018,12,03,05,35,4.90
2018,12,03,05,36,4.90
2018,12,03,05,37,4.90
2018,12,03,05,38,4.90
2018,12,03,05,39,4.90
2018,12,03,05,40,4.90
2018,12,03,05,41,4.90
2018,12,03,05,42,4.90
2018,12,03,05,43,4.90
2018,12,03,05,44,4.90
2018,12,03,05,45,4.90
2018,12,03,05,46,4.90
2018,12,03,05,47,4.90
2018,12,03,05,48,4.90
2018,12,03,05,49,4.90
2018,12,03,05,50,4.90
2018,12,03,05,51,4.90
2018,12,03,05,52,4.90
2018,12,03,05,53,5.10
2018,12,03,05,54,5.10
2018,12,03,05,55,5.10
2018,12,03,05,56,5.10
2018,12,03,05,57,5.10
2018,12,03,05,58,5.10
2018,12,03,05,59,5.10
2018,12,03,06,00,5.10
2018,12,03,06,01,5.10
2018,12,03,06,02,5.10
2018,12,03,06,03,5.10
2018,12,03,06,04,5.10
2018,12,03,06,05,5.10
2018,12,03,06,06,5.10
2018,12,03,06,08,5.10
2018,12,03,06,09,5.10
2018,12,03,06,29,5.10
2018,12,03,06,30,5.20
2018,12,03,07,29,5.30
2018,12,03,07,30,5.30
2018,12,03,07,31,5.30
2018,12,03,07,32,5.30
2018,12,03,07,33,5.40
2018,12,03,07,34,5.40
2018,12,03,07,35,5.40
2018,12,03,07,36,5.40
2018,12,03,07,37,5.40
2018,12,03,07,38,5.40
2018,12,03,07,39,5.40
2018,12,03,07,40,5.40
2018,12,03,07,41,5.40
2018,12,03,07,42,5.40
2018,12,03,07,43,5.40
2018,12,03,07,44,5.40
2018,12,03,07,45,5.40
2018,12,03,07,46,5.50
2018,12,03,07,47,5.50
2018,12,03,07,48,5.60
2018,12,03,07,49,5.70
2018,12,03,07,50,5.60
2018,12,03,07,51,5.50
2018,12,03,07,52,5.50
2018,12,03,07,53,5.50
2018,12,03,07,54,5.40
2018,12,03,07,55,5.40
2018,12,03,07,56,5.30
2018,12,03,07,58,5.30
2018,12,03,08,29,5.30
2018,12,03,08,30,5.30
2018,12,03,08,31,5.30
2018,12,03,08,32,5.30
2018,12,03,08,33,5.30
2018,12,03,08,34,5.30
2018,12,03,08,35,5.30
2018,12,03,08,36,5.30
2018,12,03,08,37,5.40
2018,12,03,08,38,5.40
2018,12,03,08,39,5.40
2018,12,03,08,40,5.40
2018,12,03,08,41,5.40
2018,12,03,08,42,5.40
2018,12,03,08,43,5.40
2018,12,03,08,44,5.40
2018,12,03,08,45,5.40
2018,12,03,08,46,5.40
2018,12,03,08,47,5.40
2018,12,03,08,48,5.40
2018,12,03,08,49,5.50
2018,12,03,08,50,5.50
2018,12,03,08,51,5.50
2018,12,03,08,52,5.50
2018,12,03,08,53,5.50
2018,12,03,08,54,5.50
2018,12,03,08,55,5.50
2018,12,03,08,56,5.60
2018,12,03,08,57,5.60
2018,12,03,08,58,5.60
2018,12,03,08,59,5.60
2018,12,03,09,00,5.60
2018,12,03,09,01,5.60
2018,12,03,09,02,5.70
2018,12,03,09,03,5.70
2018,12,03,09,04,5.70
2018,12,03,09,05,5.70
2018,12,03,09,06,5.70
2018,12,03,09,07,5.70
2018,12,03,09,08,5.70
2018,12,03,09,09,5.80
2018,12,03,09,11,5.90
2018,12,03,09,29,5.80
2018,12,03,09,30,5.80
2018,12,03,09,31,5.80
2018,12,03,09,32,5.80
2018,12,03,09,33,5.80
2018,12,03,09,34,5.70
2018,12,03,09,35,5.70
2018,12,03,09,36,5.70
2018,12,03,09,37,5.70
2018,12,03,09,38,5.70
2018,12,03,09,39,5.70
2018,12,03,09,40,5.70
2018,12,03,09,41,5.70
2018,12,03,09,42,5.70
2018,12,03,09,43,5.70
2018,12,03,09,44,5.70
2018,12,03,09,45,5.70
2018,12,03,09,46,5.70
2018,12,03,09,47,5.70
2018,12,03,09,48,5.70
2018,12,03,09,49,5.60
2018,12,03,09,50,5.60
2018,12,03,09,51,5.60
2018,12,03,09,52,5.60
2018,12,03,09,53,5.60
2018,12,03,09,54,5.60
2018,12,03,09,55,5.60
2018,12,03,09,56,5.60
2018,12,03,09,57,5.60
2018,12,03,09,58,5.60
2018,12,03,09,59,5.60
2018,12,03,10,00,5.60
2018,12,03,10,02,5.60
2018,12,03,10,03,5.70
2018,12,03,10,04,5.70
2018,12,03,10,29,5.70
2018,12,03,10,30,5.70
2018,12,03,10,31,5.70
2018,12,03,10,32,5.70
2018,12,03,10,33,5.70
2018,12,03,10,34,5.70
2018,12,03,10,35,5.70
2018,12,03,10,36,5.70
2018,12,03,10,37,5.70
2018,12,03,10,38,5.70
2018,12,03,10,39,5.70
2018,12,03,10,40,5.70
2018,12,03,10,41,5.70
2018,12,03,10,42,5.70
2018,12,03,10,43,5.70
2018,12,03,10,44,5.70
2018,12,03,10,45,5.70
2018,12,03,10,46,5.70
2018,12,03,10,47,5.70
2018,12,03,10,48,5.70
2018,12,03,10,49,5.70
2018,12,03,10,50,5.70
2018,12,03,10,51,5.70
2018,12,03,10,52,5.70
2018,12,03,10,53,5.70
2018,12,03,10,54,5.70
2018,12,03,10,55,5.70
2018,12,03,10,56,5.70
2018,12,03,10,57,5.80
2018,12,03,10,58,5.80
2018,12,03,10,59,5.80
2018,12,03,11,00,5.80
2018,12,03,11,01,5.80
2018,12,03,11,02,5.80
2018,12,03,11,03,5.80
2018,12,03,11,04,5.80
2018,12,03,11,05,5.80
2018,12,03,11,07,5.80
2018,12,03,11,08,5.80
2018,12,03,11,09,5.90
2018,12,03,11,29,6.00
2018,12,03,11,30,6.00
2018,12,03,11,31,6.00
2018,12,03,11,32,6.00
2018,12,03,11,33,6.00
2018,12,03,11,34,6.10
2018,12,03,11,35,6.10
2018,12,03,11,36,6.10
2018,12,03,11,37,6.10
2018,12,03,11,38,6.10
2018,12,03,11,39,6.10
2018,12,03,11,40,6.10
2018,12,03,11,41,6.10
2018,12,03,11,42,6.10
2018,12,03,11,43,6.10
2018,12,03,11,44,6.10
2018,12,03,11,45,6.10
2018,12,03,11,46,6.10
2018,12,03,11,47,6.10
2018,12,03,11,48,6.10
2018,12,03,11,49,6.20
2018,12,03,11,50,6.10
2018,12,03,11,51,6.10
2018,12,03,11,52,6.00
2018,12,03,11,53,6.00
2018,12,03,11,54,6.00
2018,12,03,11,55,6.00
2018,12,03,11,56,6.10
2018,12,03,11,57,6.10
2018,12,03,11,58,6.10
2018,12,03,11,59,6.10
2018,12,03,12,00,6.10
2018,12,03,12,01,6.20
2018,12,03,12,03,6.20
2018,12,03,12,04,6.20
2018,12,03,12,29,6.60
2018,12,03,12,30,6.60
2018,12,03,13,29,6.70
2018,12,03,13,30,6.70
2018,12,03,13,31,6.70
2018,12,03,13,32,6.70
2018,12,03,13,33,6.70
2018,12,03,13,34,6.70
2018,12,03,13,35,6.70
2018,12,03,13,36,6.70
2018,12,03,13,37,6.70
2018,12,03,13,38,6.70
2018,12,03,13,39,6.70
2018,12,03,13,40,6.70
2018,12,03,13,41,6.70
2018,12,03,13,42,6.70
2018,12,03,13,43,6.70
2018,12,03,13,44,6.70
2018,12,03,13,45,6.70
2018,12,03,13,46,6.80
2018,12,03,13,47,6.80
2018,12,03,13,48,6.80
2018,12,03,13,49,6.80
2018,12,03,13,50,6.80
2018,12,03,13,51,6.80
2018,12,03,13,52,6.80
2018,12,03,13,53,6.80
2018,12,03,13,54,6.80
2018,12,03,13,56,6.80
2018,12,03,14,29,6.80
2018,12,03,14,30,6.80
2018,12,03,14,31,6.80
2018,12,03,14,32,6.80
2018,12,03,14,33,6.80
2018,12,03,14,34,6.80
2018,12,03,14,35,6.80
2018,12,03,14,36,6.80
2018,12,03,14,37,6.80
2018,12,03,14,38,6.80
2018,12,03,14,39,6.80
2018,12,03,14,40,6.80
2018,12,03,14,41,6.80
2018,12,03,14,42,6.80
2018,12,03,14,43,6.80
2018,12,03,14,44,6.80
2018,12,03,14,45,6.80
2018,12,03,14,46,6.80
2018,12,03,14,47,6.80
2018,12,03,14,48,6.80
2018,12,03,14,49,6.80
2018,12,03,14,50,6.80
2018,12,03,14,51,6.80
2018,12,03,14,52,6.80
2018,12,03,14,53,6.80
2018,12,03,14,54,6.80
2018,12,03,14,55,6.80
2018,12,03,14,56,6.80
2018,12,03,14,57,6.80
2018,12,03,14,58,6.80
2018,12,03,14,59,6.80
2018,12,03,15,00,6.80
2018,12,03,15,02,6.80
2018,12,03,15,03,6.80
2018,12,03,15,04,6.80
2018,12,03,15,29,6.70
2018,12,03,15,30,6.70
2018,12,03,15,31,6.70
2018,12,03,15,32,6.70
2018,12,03,15,33,6.70
2018,12,03,15,34,6.70
2018,12,03,15,35,6.70
2018,12,03,15,36,6.70
2018,12,03,15,37,6.70
2018,12,03,15,38,6.70
2018,12,03,15,39,6.70
2018,12,03,15,40,6.70
2018,12,03,15,41,6.70
2018,12,03,15,42,6.70
2018,12,03,15,43,6.70
2018,12,03,15,44,6.70
2018,12,03,15,45,6.70
2018,12,03,15,46,6.70
2018,12,03,15,47,6.70
2018,12,03,15,48,6.70
2018,12,03,15,49,6.70
2018,12,03,15,50,6.70
2018,12,03,15,51,6.70
2018,12,03,15,52,6.70
2018,12,03,15,53,6.70
2018,12,03,15,54,6.70
2018,12,03,15,55,6.60
2018,12,03,15,57,6.60
2018,12,03,15,58,6.60
2018,12,03,15,59,6.60
2018,12,03,16,29,6.60
2018,12,03,16,30,6.60
2018,12,03,16,31,6.60
2018,12,03,16,32,6.60
2018,12,03,16,33,6.60
2018,12,03,16,34,6.60
2018,12,03,16,35,6.60
2018,12,03,16,36,6.60
2018,12,03,16,37,6.60
2018,12,03,16,38,6.60
2018,12,03,16,39,6.40
2018,12,03,16,40,6.40
2018,12,03,16,41,6.40
2018,12,03,16,42,6.40
2018,12,03,16,43,6.40
2018,12,03,16,44,6.40
2018,12,03,16,45,6.40
2018,12,03,16,46,6.40
2018,12,03,16,47,6.40
2018,12,03,16,48,6.40
2018,12,03,16,49,6.40
2018,12,03,16,50,6.40
2018,12,03,16,51,6.40
2018,12,03,16,52,6.40
2018,12,03,16,53,6.40
2018,12,03,16,54,6.40
2018,12,03,16,55,6.30
2018,12,03,16,56,6.30
2018,12,03,16,57,6.30
2018,12,03,16,58,6.30
2018,12,03,16,59,6.30
2018,12,03,17,00,6.30
2018,12,03,17,01,6.30
2018,12,03,17,03,6.30
2018,12,03,17,29,6.30
2018,12,03,17,30,6.30
2018,12,03,17,31,6.30
2018,12,03,17,32,6.30
2018,12,03,17,33,6.30
2018,12,03,17,34,6.30
2018,12,03,17,35,6.30
2018,12,03,17,36,6.30
2018,12,03,17,37,6.20
2018,12,03,17,38,6.20
2018,12,03,17,39,6.20
2018,12,03,17,40,6.20
2018,12,03,17,41,6.20
2018,12,03,17,42,6.20
2018,12,03,17,43,6.20
2018,12,03,17,44,6.20
2018,12,03,17,45,6.20
2018,12,03,17,46,6.20
2018,12,03,17,47,6.20
2018,12,03,17,48,6.20
2018,12,03,17,49,6.20
2018,12,03,17,50,6.20
2018,12,03,17,51,6.20
2018,12,03,17,52,6.20
2018,12,03,17,53,6.20
2018,12,03,17,54,6.20
2018,12,03,17,55,6.20
2018,12,03,17,56,6.20
2018,12,03,17,57,6.20
2018,12,03,17,58,6.20
2018,12,03,17,59,6.20
2018,12,03,18,00,6.20
2018,12,03,18,01,6.20
2018,12,03,18,03,6.20
2018,12,03,18,04,6.20
2018,12,03,18,29,6.10
2018,12,03,18,30,6.10
2018,12,03,19,29,5.80
2018,12,03,19,30,5.70
2018,12,03,19,31,5.80
2018,12,03,19,32,5.80
2018,12,03,19,33,5.70
2018,12,03,19,34,5.70
2018,12,03,19,35,5.70
2018,12,03,19,36,5.70
2018,12,03,19,37,5.70
2018,12,03,19,38,5.70
2018,12,03,19,39,5.70
2018,12,03,19,40,5.70
2018,12,03,19,41,5.70
2018,12,03,19,42,5.70
2018,12,03,19,43,5.70
2018,12,03,19,44,5.70
2018,12,03,19,45,5.70
2018,12,03,19,46,5.70
2018,12,03,19,47,5.70
2018,12,03,19,48,5.70
2018,12,03,19,49,5.60
2018,12,03,19,50,5.60
2018,12,03,19,51,5.60
2018,12,03,19,52,5.60
2018,12,03,19,53,5.60
2018,12,03,19,54,5.60
2018,12,03,19,55,5.60
2018,12,03,19,57,5.60
2018,12,03,20,29,5.30
2018,12,03,20,30,5.30
2018,12,03,20,31,5.30
2018,12,03,20,32,5.30
2018,12,03,20,33,5.30
2018,12,03,20,34,5.20
2018,12,03,20,35,5.20
2018,12,03,20,36,5.20
2018,12,03,20,37,5.20
2018,12,03,20,38,5.20
2018,12,03,20,39,5.20
2018,12,03,20,40,5.20
2018,12,03,20,41,5.10
2018,12,03,20,42,5.10
2018,12,03,20,43,5.10
2018,12,03,20,44,5.10
2018,12,03,20,45,5.10
2018,12,03,20,46,5.10
2018,12,03,20,47,5.10
2018,12,03,20,48,5.10
2018,12,03,20,49,5.10
2018,12,03,20,50,5.10
2018,12,03,20,51,5.10
2018,12,03,20,53,5.10
2018,12,03,21,29,5.10
2018,12,03,21,30,5.10
2018,12,03,21,31,5.10
2018,12,03,21,32,5.10
2018,12,03,21,33,5.10
2018,12,03,21,34,5.10
2018,12,03,21,35,4.90
2018,12,03,21,36,4.90
2018,12,03,21,37,4.90
2018,12,03,21,38,4.90
2018,12,03,21,39,4.90
2018,12,03,21,40,4.90
2018,12,03,21,41,4.90
2018,12,03,21,42,4.90
2018,12,03,21,43,4.90
2018,12,03,21,44,4.90
2018,12,03,21,45,4.90
2018,12,03,21,46,4.90
2018,12,03,21,47,4.90
2018,12,03,21,48,4.90
2018,12,03,21,49,4.90
2018,12,03,21,50,4.90
2018,12,03,21,51,4.90
2018,12,03,21,52,4.90
2018,12,03,21,53,4.90
2018,12,03,21,54,4.90
2018,12,03,21,55,4.90
2018,12,03,21,56,4.90
2018,12,03,21,57,4.90
2018,12,03,21,58,4.90
2018,12,03,21,59,4.90
2018,12,03,22,01,4.90
2018,12,03,22,02,4.90
2018,12,03,22,03,4.90
2018,12,03,22,04,4.90
2018,12,03,22,29,4.90
2018,12,03,22,30,4.90
2018,12,03,22,31,4.90
2018,12,03,22,32,4.90
2018,12,03,22,33,4.90
2018,12,03,22,34,4.90
2018,12,03,22,35,4.90
2018,12,03,22,36,4.90
2018,12,03,22,37,4.90
2018,12,03,22,38,4.90
2018,12,03,22,39,4.90
2018,12,03,22,40,4.90
2018,12,03,22,41,4.90
2018,12,03,22,42,4.80
2018,12,03,22,43,4.80
2018,12,03,22,44,4.80
2018,12,03,22,45,4.80
2018,12,03,22,46,4.80
2018,12,03,22,47,4.80
2018,12,03,22,48,4.80
2018,12,03,22,49,4.80
2018,12,03,22,50,4.80
2018,12,03,22,51,4.80
2018,12,03,22,52,4.80
2018,12,03,22,53,4.80
2018,12,03,22,54,4.80
2018,12,03,22,55,4.80
2018,12,03,22,56,4.80
2018,12,03,22,57,4.80
2018,12,03,22,58,4.70
2018,12,03,22,59,4.70
2018,12,03,23,01,4.70
2018,12,03,23,29,3.80
2018,12,03,23,30,3.80
2018,12,03,23,31,3.70
2018,12,03,23,32,3.70
2018,12,03,23,33,3.70
2018,12,03,23,34,3.60
2018,12,03,23,35,3.60
2018,12,03,23,36,3.60
2018,12,03,23,37,3.60
2018,12,03,23,38,3.60
2018,12,03,23,39,3.60
2018,12,03,23,40,3.50
2018,12,03,23,41,3.50
2018,12,03,23,42,3.50
2018,12,03,23,43,3.50
2018,12,03,23,44,3.50
2018,12,03,23,45,3.50
2018,12,03,23,46,3.50
2018,12,03,23,47,3.60
2018,12,03,23,48,3.60
2018,12,03,23,49,3.70
2018,12,03,23,50,3.80
2018,12,03,23,51,3.80
2018,12,03,23,52,3.80
2018,12,03,23,53,3.80
2018,12,03,23,54,3.90
2018,12,03,23,55,3.90
2018,12,03,23,56,4.00
2018,12,03,23,57,4.00
2018,12,03,23,58,4.00
2018,12,03,23,59,4.00
